Location: Armidale
(30.5016°S, 151.6662°E)
Time: 06:09:40
(UTC+10:00)

LightSail 2 - Visible Passes

Search period start: 22 August 2019 00:00
Search period end: 01 September 2019 00:00
Orbit: 701 x 732 km, 24.0° (Epoch: 21 August)

Date Brightness Start Highest point End Pass type
(mag) Time Alt. Az. Time Alt. Az. Time Alt. Az.
23 Aug 7.4 05:55:13 10° NNW 05:59:03 21° NNE 06:02:55 10° ENE visible
24 Aug 7.5 04:59:03 10° NNW 05:02:14 16° NNE 05:05:26 10° ENE visible
25 Aug 7.6 04:04:31 12° NNE 04:05:25 12° NNE 04:07:28 10° NE visible
25 Aug 6.8 05:46:03 10° NW 05:50:28 28° NNE 05:54:56 10° ENE visible
26 Aug 6.9 04:50:22 14° NNW 04:53:36 24° NNE 04:57:44 10° ENE visible
27 Aug 7.2 03:57:05 19° NNE 03:57:05 19° NNE 04:00:23 10° ENE visible
27 Aug 6.4 05:37:11 10° WNW 05:41:54 35° N 05:46:39 10° ENE visible
28 Aug 6.4 04:42:47 22° NNW 04:45:00 31° NNE 04:49:34 10° ENE visible
29 Aug 6.9 03:49:23 24° NE 03:49:23 24° NE 03:52:25 10° ENE visible
29 Aug 6.1 05:28:31 10° WNW 05:33:20 40° N 05:38:12 10° ENE visible
30 Aug 6.1 04:34:58 31° NNW 04:36:24 37° N 04:41:10 10° ENE visible
31 Aug 6.9 03:41:29 25° NE 03:41:29 25° NE 03:44:08 10° ENE visible
31 Aug 6.0 05:20:31 13° WNW 05:24:45 40° N 05:29:37 10° ENE visible
